When you browse on this site, cookies collect data to enhance your experience and personalize the content and advertising you see.
Visit our Privacy Policy to learn more. By continuing to use the site, you agree to this use of cookies and data.
  • In Hungary
  • List of Countries
  • For 7 days
  • Water Temperature
  • Satellite Maps
  • Weather Map
  • News
  • Weather Widgets
  • user-avatar
    Login

    Hourly Weather Voykove

    Today, 24 July, Wednesday

    Time Temperature Precipitation Wind Pressure Humidity
    00:00 +21°C° 0.4 mm 2 mps 752 mmHg 81%
    01:00 +21°C° 0.4 mm 2 mps 752 mmHg 82%
    02:00 +21°C° 0.4 mm 2 mps 752 mmHg 84%
    03:00 +21°C° 0.3 mm 2 mps 752 mmHg 84%
    04:00 +21°C° 0.3 mm 2 mps 752 mmHg 85%
    05:00 +20°C° 0.3 mm 2 mps 752 mmHg 85%
    06:00 +22°C° 0 mm 3 mps 752 mmHg 78%
    07:00 +24°C° 0 mm 3 mps 752 mmHg 72%
    08:00 +25°C° 0 mm 4 mps 752 mmHg 65%
    09:00 +27°C° 0 mm 4 mps 752 mmHg 57%
    10:00 +28°C° 0 mm 4 mps 752 mmHg 48%
    11:00 +30°C° 0 mm 4 mps 752 mmHg 39%
    12:00 +30°C° 0 mm 4 mps 752 mmHg 37%
    13:00 +32°C° 0 mm 4 mps 752 mmHg 35%
    14:00 +31°C° 0 mm 3 mps 752 mmHg 32%
    15:00 +32°C° 0 mm 4 mps 752 mmHg 32%
    16:00 +30°C° 0 mm 4 mps 752 mmHg 32%
    17:00 +30°C° 0 mm 5 mps 752 mmHg 32%
    18:00 +29°C° 0 mm 4 mps 752 mmHg 39%
    19:00 +27°C° 0 mm 4 mps 752 mmHg 47%
    20:00 +25°C° 0 mm 3 mps 752 mmHg 54%
    21:00 +25°C° 0 mm 3 mps 753 mmHg 55%
    22:00 +24°C° 0 mm 3 mps 753 mmHg 57%
    23:00 +24°C° 0 mm 2 mps 753 mmHg 58%

    Tomorrow, 25 July, Thursday

    Time Temperature Precipitation Wind Pressure Humidity
    00:00 +23°C° 0 mm 2 mps 753 mmHg 61%
    01:00 +21°C° 0 mm 2 mps 753 mmHg 64%
    02:00 +21°C° 0 mm 2 mps 753 mmHg 67%
    03:00 +21°C° 0 mm 2 mps 753 mmHg 70%
    04:00 +20°C° 0 mm 2 mps 753 mmHg 73%
    05:00 +20°C° 0 mm 2 mps 753 mmHg 75%
    06:00 +22°C° 0 mm 3 mps 753 mmHg 68%
    07:00 +25°C° 0 mm 3 mps 753 mmHg 61%
    08:00 +26°C° 0 mm 4 mps 753 mmHg 54%
    09:00 +27°C° 0 mm 4 mps 754 mmHg 48%
    10:00 +29°C° 0 mm 4 mps 754 mmHg 43%
    11:00 +30°C° 0 mm 5 mps 754 mmHg 38%
    12:00 +30°C° 0 mm 5 mps 754 mmHg 35%
    13:00 +32°C° 0 mm 5 mps 754 mmHg 33%
    14:00 +33°C° 0 mm 5 mps 754 mmHg 30%
    15:00 +32°C° 0 mm 5 mps 754 mmHg 31%
    16:00 +32°C° 0 mm 5 mps 754 mmHg 33%
    17:00 +30°C° 0 mm 6 mps 753 mmHg 34%
    18:00 +29°C° 0 mm 5 mps 754 mmHg 40%
    19:00 +27°C° 0 mm 4 mps 754 mmHg 46%
    20:00 +25°C° 0 mm 3 mps 754 mmHg 51%
    21:00 +25°C° 0 mm 3 mps 754 mmHg 54%
    22:00 +24°C° 0 mm 3 mps 754 mmHg 56%
    23:00 +24°C° 0 mm 3 mps 754 mmHg 59%

    Day after tomorrow, 26 July, Friday

    Time Temperature Precipitation Wind Pressure Humidity
    00:00 +22°C° 0 mm 3 mps 754 mmHg 61%
    01:00 +22°C° 0 mm 3 mps 754 mmHg 64%
    02:00 +21°C° 0 mm 2 mps 754 mmHg 66%
    03:00 +21°C° 0 mm 2 mps 754 mmHg 68%
    04:00 +20°C° 0 mm 2 mps 754 mmHg 69%
    05:00 +21°C° 0 mm 1 mps 754 mmHg 70%
    06:00 +23°C° 0 mm 1 mps 754 mmHg 62%
    07:00 +25°C° 0 mm 1 mps 754 mmHg 54%
    08:00 +27°C° 0 mm 1 mps 754 mmHg 46%
    09:00 +28°C° 0 mm 2 mps 754 mmHg 41%
    10:00 +30°C° 0 mm 2 mps 754 mmHg 36%
    11:00 +31°C° 0 mm 3 mps 754 mmHg 31%
    12:00 +32°C° 0 mm 4 mps 754 mmHg 31%
    13:00 +33°C° 0 mm 5 mps 753 mmHg 31%
    14:00 +33°C° 0 mm 5 mps 753 mmHg 30%
    15:00 +33°C° 0 mm 5 mps 753 mmHg 31%
    16:00 +32°C° 0 mm 5 mps 753 mmHg 31%
    17:00 +32°C° 0 mm 4 mps 753 mmHg 32%
    18:00 +29°C° 0 mm 3 mps 753 mmHg 39%
    19:00 +27°C° 0 mm 3 mps 753 mmHg 46%
    20:00 +25°C° 0 mm 2 mps 753 mmHg 52%
    21:00 +24°C° 0 mm 2 mps 753 mmHg 57%
    22:00 +23°C° 0 mm 2 mps 752 mmHg 62%
    23:00 +23°C° 0 mm 2 mps 752 mmHg 67%

    27 July, Saturday

    Time Temperature Precipitation Wind Pressure Humidity
    00:00 +23°C° 0 mm 2 mps 752 mmHg 71%
    01:00 +21°C° 0 mm 2 mps 752 mmHg 75%
    02:00 +21°C° 0 mm 2 mps 751 mmHg 79%
    03:00 +21°C° 0 mm 2 mps 751 mmHg 79%
    04:00 +21°C° 0 mm 2 mps 751 mmHg 79%
    05:00 +21°C° 0 mm 2 mps 751 mmHg 79%
    06:00 +24°C° 0 mm 2 mps 751 mmHg 69%
    07:00 +26°C° 0 mm 2 mps 751 mmHg 58%
    08:00 +28°C° 0 mm 2 mps 751 mmHg 48%
    09:00 +30°C° 0 mm 3 mps 751 mmHg 44%
    10:00 +31°C° 0 mm 3 mps 751 mmHg 39%
    11:00 +33°C° 0 mm 3 mps 751 mmHg 35%
    12:00 +33°C° 0 mm 4 mps 751 mmHg 36%
    13:00 +33°C° 0 mm 4 mps 750 mmHg 37%
    14:00 +33°C° 0 mm 4 mps 750 mmHg 38%
    15:00 +31°C° 0 mm 3 mps 750 mmHg 38%
    16:00 +31°C° 0 mm 3 mps 750 mmHg 39%
    17:00 +31°C° 0 mm 3 mps 749 mmHg 39%
    18:00 +29°C° 0 mm 2 mps 749 mmHg 48%
    19:00 +27°C° 0 mm 2 mps 749 mmHg 56%
    20:00 +24°C° 0 mm 2 mps 749 mmHg 64%
    21:00 +24°C° 0 mm 2 mps 749 mmHg 68%
    22:00 +24°C° 0 mm 2 mps 749 mmHg 71%
    23:00 +23°C° 0 mm 2 mps 749 mmHg 74%

    28 July, Sunday

    Time Temperature Precipitation Wind Pressure Humidity
    00:00 +23°C° 0 mm 2 mps 749 mmHg 77%
    01:00 +21°C° 0 mm 2 mps 749 mmHg 80%
    02:00 +21°C° 0 mm 2 mps 748 mmHg 82%
    03:00 +22°C° 0 mm 1 mps 748 mmHg 82%
    04:00 +22°C° 0 mm 1 mps 748 mmHg 82%
    05:00 +22°C° 0 mm 1 mps 748 mmHg 82%
    06:00 +24°C° 0 mm 1 mps 748 mmHg 70%
    07:00 +26°C° 0 mm 1 mps 748 mmHg 58%
    08:00 +29°C° 0 mm 1 mps 748 mmHg 45%
    09:00 +30°C° 0 mm 1 mps 748 mmHg 40%
    10:00 +32°C° 0 mm 1 mps 748 mmHg 35%
    11:00 +34°C° 0 mm 1 mps 748 mmHg 30%
    12:00 +34°C° 0 mm 3 mps 748 mmHg 31%
    13:00 +34°C° 0 mm 4 mps 748 mmHg 32%
    14:00 +33°C° 0 mm 5 mps 748 mmHg 33%
    15:00 +32°C° 0 mm 5 mps 747 mmHg 37%
    16:00 +30°C° 0 mm 5 mps 747 mmHg 42%
    17:00 +29°C° 0 mm 4 mps 747 mmHg 47%
    18:00 +28°C° 0 mm 4 mps 747 mmHg 53%
    19:00 +26°C° 0 mm 3 mps 747 mmHg 59%
    20:00 +25°C° 0 mm 2 mps 747 mmHg 66%
    21:00 +25°C° 0 mm 2 mps 747 mmHg 66%
    22:00 +25°C° 0 mm 2 mps 747 mmHg 67%
    23:00 +25°C° 0 mm 2 mps 747 mmHg 68%

    29 July, Monday

    Time Temperature Precipitation Wind Pressure Humidity
    00:00 +24°C° 0 mm 2 mps 747 mmHg 69%
    01:00 +24°C° 0 mm 2 mps 747 mmHg 71%
    02:00 +23°C° 0 mm 2 mps 747 mmHg 72%
    03:00 +23°C° 0 mm 2 mps 747 mmHg 74%
    04:00 +23°C° 0 mm 2 mps 746 mmHg 76%
    05:00 +21°C° 0 mm 2 mps 746 mmHg 79%
    06:00 +24°C° 0 mm 2 mps 746 mmHg 69%
    07:00 +26°C° 0 mm 3 mps 746 mmHg 59%
    08:00 +28°C° 0 mm 3 mps 746 mmHg 49%
    09:00 +30°C° 0 mm 3 mps 746 mmHg 44%
    10:00 +32°C° 0 mm 4 mps 746 mmHg 39%
    11:00 +34°C° 0 mm 4 mps 747 mmHg 34%
    12:00 +34°C° 0 mm 4 mps 747 mmHg 34%
    13:00 +34°C° 0 mm 5 mps 746 mmHg 34%
    14:00 +34°C° 0 mm 5 mps 746 mmHg 34%
    15:00 +33°C° 0 mm 6 mps 747 mmHg 35%
    16:00 +33°C° 0 mm 6 mps 747 mmHg 37%
    17:00 +32°C° 0 mm 6 mps 747 mmHg 38%
    18:00 +29°C° 0.1 mm 6 mps 747 mmHg 49%
    19:00 +27°C° 0.1 mm 6 mps 747 mmHg 59%
    20:00 +23°C° 0.1 mm 5 mps 748 mmHg 69%
    21:00 +22°C° 0 mm 5 mps 748 mmHg 69%
    22:00 +21°C° 0 mm 5 mps 748 mmHg 70%
    23:00 +20°C° 0 mm 6 mps 749 mmHg 70%
    Show more